Back to catalog

STARLINK-6088

AliveCommunicationsVLEO
NORAD 56098·PAYLOAD·🇺🇸 United States

Launched Mar 29, 2023 from Cape Canaveral Space Force Station

Loading…

Next Passes (next 24 hours)

TLE

FreshSource: CelesTrak SupGP

Epoch: Sep 15, 2026, 01:25 UTC

1 56098C 23046F   26258.05951389 -.00003990  00000+0 -14456-3 0  2589
2 56098  42.9997 171.8719 0001296 261.8745 179.8308 15.27574635    17

Track STARLINK-6088 in real time with AllMySat

Download on the App Store